Regional Weather Roundup
Issued by NWS Binghamton, NY

Home | Current Version | Previous Version | Text Only | Print | Product List | Glossary On
Versions: 1 2 3 4 5 6 7 8 9 10 11 12 13 14 15 16 17 18 19 20 21 22 23 24 25 26 27 28 29 30 31 32 33 34 35 36 37 38 39 40 41 42 43 44 45 46 47 48 49 50
488
ASUS41 KBGM 290410
RWRBGM

REGIONAL WEATHER ROUNDUP
NATIONAL WEATHER SERVICE BINGHAMTON NY
1200 AM EDT MON MAY 29 2017

Note: "fair" indicates few or no clouds below 12,000 feet with no
significant weather and/or obstructions to visibility.

* = Station(s) that does not report precipitation, such as rain,
snow, etc, also no thunder or fog.

NYZ009-015>018-022>025-036-037-044>046-055>057-062-290500
...Central New York...

CITY           SKY/WX    TMP DP  RH WIND       PRES   REMARKS
Binghamton     CLOUDY    62  55  77 S9        29.85F
Cortland       CLOUDY    64  57  77 S9        29.83S
Dansville      CLOUDY    66  58  75 SE8       29.75F
Elmira         CLOUDY    66  59  78 SE13      29.79F
Seneca Falls   MOCLDY    66  57  72 S9        29.76F
Ithaca         CLOUDY    65  58  78 SE12G18   29.82S
Hamilton       PTCLDY    63  54  72 S6        29.84F
Hornell        CLOUDY    63  57  82 CALM      29.81S
Monticello     MOCLDY    55  48  76 SE6       29.93F
Norwich        CLOUDY    63  54  72 S12       29.86S
Oneonta        CLEAR     59 N/A N/A S3        29.88F
Penn Yan       CLOUDY    66  58  75 S9        29.77F
Rome           CLOUDY    66  55  67 E9        29.83F
Sidney         CLOUDY    61  54  77 CALM      29.86F
Syracuse       CLOUDY    66  56  70 E7        29.77F
$$

PAZ038>040-043-044-047-048-072-290500
...Northeast Pennsylvania...

CITY           SKY/WX    TMP DP  RH WIND       PRES   REMARKS
Hazleton       RAIN      57  55  94 SE7       29.90F
Scranton       LGT RAIN  61  55  81 CALM      29.86F
$$
&&
KEY
WCI = Wind Chill Index
VSB = Visibility
HX  = Heat Index
$$




USA.gov is the U.S. government's official web portal to all federal, state and local government web resources and services.